Powrót do katalogu

STARLINK-5418

AktywnyŁącznośćVLEO
NORAD 54852·PAYLOAD·🇺🇸 United States

Wystrzelony Dec 28, 2022 z Cape Canaveral Space Force Station

Loading…

Następne Przeloty (najbliższe 24 godziny)

TLE

ŚwieżeSource: CelesTrak SupGP

Epoka: Sep 14, 2026, 22:28 UTC

1 54852C 22177AJ  26257.93659722 -.00005746  00000+0 -20814-3 0  2576
2 54852  43.0022 132.4572 0001788 268.1938 238.8390 15.27575700    15

Śledź STARLINK-5418 w czasie rzeczywistym z AllMySat

Download on the App Store